X

Important NEWS



New Hub Active

Miami is our new hub! Old members can request transfer via hr@dlxairways.net

Thank you very much and have nice flight.


Deluxe Airways.

X

Tours



Hello again, we created one nice test tour for all pilots to attend. also this is ment to be testing of our tour system

Available Tours

If you find some issues please inform us.

Thank you very much and have nice flight.


Deluxe Airways.

 METAR AND TAF INFORMATION
ArrayMETAR FOR LCLK
147981029 6 LCLK 132330Z 10004KT 060V130 7000 NSC 27/24 Q1002 NOSIG LCLK 2020-07-13T23:30:00Z 34.87 33.62 27.0 24.0 100 4 4.35 29.586615 TRUE MVFR METAR 2.0 LCLK 132300Z 01006KT 7000 NSC 27/24 Q1002 NOSIG LCLK 2020-07-13T23:00:00Z 34.87 33.62 27.0 24.0 10 6 4.35 29.586615 TRUE MVFR METAR 2.0 LCLK 132230Z 03005KT 7000 NSC 28/24 Q1002 NOSIG LCLK 2020-07-13T22:30:00Z 34.87 33.62 28.0 24.0 30 5 4.35 29.586615 TRUE MVFR METAR 2.0 LCLK 132200Z 01005KT 7000 NSC 28/25 Q1002 NOSIG LCLK 2020-07-13T22:00:00Z 34.87 33.62 28.0 25.0 10 5 4.35 29.586615 TRUE MVFR METAR 2.0

 AIRPORT MAP

 RUNWAY INFORMATION
Runway 04 Runway length 9776 ft Runway width 148 ft
Runway elevation 11 ft Runway displaced threshold 0 ft Runway heading 45
Runway 22 Runway length 9776 ft Runway width 148 ft
Runway elevation 6 ft Runway displaced threshold 575 ft Runway heading 225

 AIRPORT FREQUENCIES
Type APP Name APP Frequency 121.2 MHZ
Type ATIS Name ATIS Frequency 126.55 MHZ
Type TWR Name TWR Frequency 119.4 MHZ

 AIRPORT NEAR NAVIGATION AIDS
Type VOR-DME Name Larnaca Frequency 112800 KHZ
Type NDB Name Larnaca Frequency 432 KHZ



Powered by Virtual Airlines Manager [v2.6.2]

Template code change by DeluxeAir